FW7330 Weather Reports


time (UTC)temp
C
wind
direction
speed
KPH
gust
KPH
rain 1hr
cm
rain 24hr
cm
rain mn
cm
humidity
%
barometer
mb
20260509185019 8 0.0 0.0 0.00 0.00 0.00 94 1029.1
20260509183727 8 0.0 0.0 0.00 0.00 0.00 94 1028.9
20260509182721 8 159 0.0 1.6 0.00 0.00 0.00 94 1028.9
20260509181346 8 160 0.0 1.6 0.00 0.00 0.00 94 1028.8
20260509180236 8 155 1.6 3.2 0.00 0.00 0.00 94 1028.8
20260509175007 8 0.0 0.0 0.00 0.00 0.00 94 1028.7
20260509173754 8 0.0 0.0 0.00 0.00 0.00 94 1028.8
20260509172627 8 0.0 0.0 0.00 0.00 0.00 93 1028.7
20260509171438 8 159 1.6 1.6 0.00 0.00 0.00 93 1028.7
20260509170144 8 161 0.0 1.6 0.00 0.00 0.00 93 1028.7
20260509164954 8 160 1.6 1.6 0.00 0.00 0.00 93 1028.8
20260509163804 8 166 1.6 1.6 0.00 0.00 0.00 93 1028.7
20260509162614 8 166 1.6 1.6 0.00 0.00 0.00 93 1028.8
20260509161423 8 0.0 1.6 0.00 0.00 0.00 93 1028.8
20260509160232 8 0.0 0.0 0.00 0.00 0.00 93 1028.9
20260509154939 8 175 0.0 1.6 0.00 0.00 0.00 93 1029.0
20260509153748 8 158 1.6 3.2 0.00 0.00 0.00 93 1028.9
20260509152700 8 156 1.6 3.2 0.00 0.00 0.00 92 1028.9
20260509151407 8 0.0 0.0 0.00 0.00 0.00 92 1029.0
20260509150217 8 157 1.6 1.6 0.00 0.00 0.00 92 1029.0
20260509145026 9 0.0 1.6 0.00 0.00 0.00 91 1029.1
20260509143734 9 157 1.6 1.6 0.00 0.00 0.00 91 1029.0
20260509142543 9 157 0.0 1.6 0.00 0.00 0.00 91 1028.9
20260509141353 9 155 1.6 3.2 0.00 0.00 0.00 91 1029.1
20260509140203 9 153 1.6 1.6 0.00 0.00 0.00 91 1029.1
20260509135013 9 162 0.0 1.6 0.00 0.00 0.00 91 1029.1
20260509133718 9 162 1.6 1.6 0.00 0.00 0.00 91 1029.1
20260509132529 9 162 0.0 1.6 0.00 0.00 0.00 90 1029.3
20260509131522 9 162 1.6 1.6 0.00 0.00 0.00 90 1029.3
20260509130147 10 0.0 1.6 0.00 0.00 0.00 90 1029.2
20260509124959 10 0.0 0.0 0.00 0.00 0.00 89 1029.4
20260509123809 10 162 1.6 3.2 0.00 0.00 0.00 89 1029.3
20260509122516 10 162 1.6 1.6 0.00 0.00 0.00 89 1029.5
20260509121429 10 162 0.0 1.6 0.00 0.00 0.00 89 1029.6
20260509120240 10 0.0 1.6 0.00 0.00 0.00 89 1029.5
20260509114944 10 161 1.6 1.6 0.00 0.00 0.00 89 1029.5
20260509113834 10 157 1.6 3.2 0.00 0.00 0.00 88 1029.4
20260509112644 10 162 1.6 1.6 0.00 0.00 0.00 88 1029.5
20260509111412 11 170 1.6 1.6 0.00 0.00 0.00 88 1029.5
20260509110221 10 178 0.0 1.6 0.00 0.00 0.00 88 1029.3
20260509105031 10 149 1.6 3.2 0.00 0.00 0.00 87 1029.3
20260509103738 11 164 1.6 1.6 0.00 0.00 0.00 87 1029.1
20260509102728 11 0.0 0.0 0.00 0.00 0.00 86 1029.2
20260509101358 11 153 1.6 3.2 0.00 0.00 0.00 86 1029.0
20260509100208 11 147 1.6 3.2 0.00 0.00 0.00 86 1028.9
20260509095018 11 160 1.6 3.2 0.00 0.00 0.00 85 1028.9
20260509093725 11 170 1.6 3.2 0.00 0.00 0.00 85 1028.7
20260509092535 11 135 3.2 3.2 0.00 0.00 0.00 85 1028.7
20260509091449 12 164 1.6 1.6 0.00 0.00 0.00 84 1028.6
20260509090155 12 0.0 0.0 0.00 0.00 0.00 81 1028.5
20260509085005 12 168 1.6 1.6 0.00 0.00 0.00 80 1028.3
20260509083816 13 131 3.2 3.2 0.00 0.00 0.00 78 1028.2
20260509082522 13 0.0 0.0 0.00 0.00 0.00 76 1028.0
20260509081435 14 0.0 1.6 0.00 0.00 0.00 75 1027.8
20260509080246 15 132 0.0 1.6 0.00 0.00 0.00 73 1027.7
20260509074953 15 172 1.6 4.8 0.00 0.00 0.00 71 1027.4
20260509073802 16 182 1.6 3.2 0.00 0.00 0.00 70 1027.3
20260509072528 16 136 3.2 6.4 0.00 0.00 0.00 68 1027.1
20260509071522 17 121 6.4 14.5 0.00 0.00 0.00 67 1027.0
20260509070227 17 110 8.0 12.9 0.00 0.00 0.00 66 1027.0
20260509064934 17 88 6.4 12.9 0.00 0.00 0.00 64 1026.6
20260509063824 17 99 6.4 11.3 0.00 0.00 0.00 62 1026.7
20260509062633 18 120 9.7 14.5 0.00 0.00 0.00 61 1026.7
20260509061403 18 71 9.7 17.7 0.00 0.00 0.00 60 1026.5
20260509060213 18 125 11.3 17.7 0.00 0.00 0.00 59 1026.3
20260509055023 18 106 11.3 22.5 0.00 0.00 0.00 58 1026.2
20260509053729 18 93 8.0 16.1 0.00 0.00 0.00 57 1026.0
20260509052539 18 82 8.0 17.7 0.00 0.00 0.00 56 1025.9
20260509051452 19 90 12.9 24.1 0.00 0.00 0.00 56 1025.9
20260509050239 20 115 8.0 16.1 0.00 0.00 0.00 55 1025.9
20260509045049 20 105 11.3 16.1 0.00 0.00 0.00 54 1025.7
20260509043819 21 124 8.0 11.3 0.00 0.00 0.00 51 1026.0
20260509042626 20 107 9.7 20.9 0.00 0.00 0.00 49 1025.7
20260509041440 21 123 8.0 14.5 0.00 0.00 0.00 49 1026.0
20260509040249 20 116 9.7 16.1 0.00 0.00 0.00 49 1025.8
20260509035036 20 99 4.8 12.9 0.00 0.00 0.00 49 1026.0
20260509033806 20 130 8.0 14.5 0.00 0.00 0.00 49 1025.9
20260509032513 20 161 6.4 16.1 0.00 0.00 0.00 49 1026.1
20260509031427 20 123 8.0 12.9 0.00 0.00 0.00 48 1026.3
20260509030237 20 99 6.4 12.9 0.00 0.00 0.00 48 1026.3
20260509024943 20 133 9.7 14.5 0.00 0.00 0.00 47 1026.4
20260509023752 20 122 8.0 14.5 0.00 0.00 0.00 46 1026.6
20260509022603 20 165 9.7 16.1 0.00 0.00 0.00 46 1026.9
20260509021413 20 156 6.4 14.5 0.00 0.00 0.00 49 1027.0
20260509020223 20 144 6.4 16.1 0.00 0.00 0.00 49 1027.1
20260509015033 20 135 8.0 12.9 0.00 0.00 0.00 49 1027.3
20260509013739 20 123 6.4 16.1 0.00 0.00 0.00 49 1027.4
20260509012549 19 111 8.0 14.5 0.00 0.00 0.00 49 1027.6
20260509011503 19 190 8.0 12.9 0.00 0.00 0.00 49 1027.5
20260509010209 19 175 4.8 12.9 0.00 0.00 0.00 50 1027.7
20260509005158 18 178 4.8 12.9 0.00 0.00 0.00 50 1027.6
20260509003725 19 182 6.4 9.7 0.00 0.00 0.00 50 1027.7
20260509002535 18 173 4.8 14.5 0.00 0.00 0.00 51 1027.7
20260509001448 18 139 8.0 14.5 0.00 0.00 0.00 51 1027.7
20260509000155 18 165 8.0 11.3 0.00 0.00 0.00 51 1027.7
20260508235005 18 139 8.0 11.3 0.00 0.00 0.00 51 1027.6
20260508233855 18 163 8.0 14.5 0.00 0.00 0.00 52 1027.6
20260508232521 18 158 3.2 6.4 0.00 0.00 0.00 53 1027.7
20260508231319 17 210 3.2 6.4 0.00 0.00 0.00 53 1027.6
20260508230232 17 166 3.2 11.3 0.00 0.00 0.00 54 1027.8
20260508225019 17 178 4.8 9.7 0.00 0.00 0.00 55 1027.7
20260508223910 17 155 6.4 9.7 0.00 0.00 0.00 55 1027.5
20260508222600 16 165 4.8 9.7 0.00 0.00 0.00 56 1027.5
20260508221307 16 166 1.6 1.6 0.00 0.00 0.00 58 1027.4
20260508220220 16 179 3.2 9.7 0.00 0.00 0.00 58 1027.3
20260508215030 14 213 1.6 6.4 0.00 0.00 0.00 70 1027.3
20260508213737 12 172 1.6 3.2 0.00 0.00 0.00 73 1027.1
20260508212547 11 117 3.2 4.8 0.00 0.00 0.00 77 1027.1
20260508211356 11 143 1.6 3.2 0.00 0.00 0.00 79 1027.0
20260508210207 11 131 1.6 3.2 0.00 0.00 0.00 79 1026.9
20260508205017 11 140 1.6 3.2 0.00 0.00 0.00 79 1026.5
20260508203828 11 112 1.6 4.8 0.00 0.00 0.00 77 1026.5
20260508202534 11 100 1.6 3.2 0.00 0.00 0.00 76 1026.0
20260508201344 12 46 1.6 3.2 0.00 0.00 0.00 74 1026.2
20260508200153 12 65 1.6 4.8 0.00 0.00 0.00 73 1025.8
20260508195003 15 190 1.6 4.8 0.00 0.00 0.00 60 1025.7
20260508193813 15 162 4.8 11.3 0.00 0.00 0.00 59 1025.7
20260508192520 15 164 6.4 11.3 0.00 0.00 0.00 61 1025.4
20260508191330 15 188 3.2 11.3 0.00 0.00 0.00 61 1025.4
20260508190245 13 180 3.2 6.4 0.00 0.00 0.00 71 1025.2